Regional Weather Roundup
Issued by NWS

Home | Current Version | Previous Version | Text Only | Print | Product List | Glossary On
Versions: 1 2 3 4 5 6 7 8 9 10 11 12 13 14 15 16 17 18 19 20 21 22 23 24 25 26 27 28 29 30 31 32 33 34 35 36 37 38 39 40 41 42 43 44 45 46 47 48 49 50
000
ASUS43 KMKX 291000
RWRWI

WISCONSIN REGIONAL WEATHER ROUNDUP
NATIONAL WEATHER SERVICE MILWAUKEE/SULLIVAN WI
500 AM CDT SAT AUG 29 2015

NOTE: "FAIR" INDICATES FEW OR NO CLOUDS BELOW 12,000 FEET WITH NO
SIGNIFICANT WEATHER AND/OR OBSTRUCTIONS TO VISIBILITY.

WIZ001-002-006>008-014>016-023>028-291100-
NORTHWEST WISCONSIN

CITY           SKY/WX    TMP DP  RH WIND       PRES   REMARKS
SUPERIOR ARPT  RAIN      60  57  89 S12       30.07R
ASHLAND        LGT RAIN  60  60 100 S7        30.09S FOG
HAYWARD        CLOUDY    56  54  93 NE3       30.11R
SIREN          PTCLDY    55  54  94 CALM      30.06R
CUMBERLAND     CLEAR     54  52  94 CALM      30.07R
RICE LAKE      PTCLDY    51  50  95 CALM      30.08R FOG
CHETEK         CLEAR    N/A N/A N/A N3        30.06S
LADYSMITH      CLEAR     53  51  95 NE5       30.10R
EAU CLAIRE     MOCLDY    54  52  93 NE6       30.04R
MENOMONIE      CLEAR     53  52  97 CALM      30.04S
NEW RICHMOND   CLEAR     53  53 100 E3        30.04F
OSCEOLA        CLEAR     54  54 100 CALM      30.07R
$$

WIZ003>005-009-010-017-018-291100-
NORTH CENTRAL WISCONSIN

CITY           SKY/WX    TMP DP  RH WIND       PRES   REMARKS
MANITOWISH WTR CLOUDY    55  55 100 CALM      30.08F
ARBOR VITAE    PTCLDY    55  53  94 S6        30.09F
WOODRUFF       PTCLDY    55  53  94 S6        30.09F
RHINELANDER    PTCLDY    53  52  96 CALM      30.11R
EAGLE RIVER    PTCLDY    54  54  99 S5        30.09F
LAND O LAKES   CLOUDY    57  55  92 NW5       30.10S
PHILLIPS       PTCLDY    52  52 100 CALM      30.09S
TOMAHAWK       PTCLDY    48  47  97 CALM      30.11R FOG
MEDFORD        MOCLDY    51  51 100 E3        30.07S
MERRILL        CLOUDY    54  54 100 NE7       30.11R
$$

WIZ029-030-035-036-043>047-291100-
CENTRAL WISCONSIN

CITY           SKY/WX    TMP DP  RH WIND       PRES   REMARKS
WAUSAU         CLOUDY    57  55  93 E5        30.06R
MOSINEE        CLOUDY    55  55 100 SE5       30.07S
MARSHFIELD     CLOUDY    58  55  90 E5        30.05S
STEVENS POINT  CLOUDY    56  56  99 CALM      30.07R
WAUPACA        CLOUDY    59  58  97 E5        30.06F
WAUTOMA        NOT AVBL
WISC RAPIDS    CLOUDY    59  56  89 E7        30.06S
CAMP DOUGLAS   CLOUDY    57  57 100 E6        30.02S
$$

WIZ011>013-019>022-031-037>040-048>050-291100-
NORTHEAST WISCONSIN

CITY           SKY/WX    TMP DP  RH WIND       PRES   REMARKS
ANTIGO         CLOUDY    54  53  97 CALM      30.10R
SHAWANO        LGT RAIN  59  56  91 CALM      30.09R
OCONTO         CLOUDY    57  57 100 N3        30.09R
STURGEON BAY   MOCLDY    57  55  94 CALM      30.11S
GREEN BAY      LGT RAIN  59  57  93 SE3       30.08F FOG
MANITOWOC      NOT AVBL
APPLETON       DRIZZLE   57  57 100 NE5       30.06F
CLINTONVILLE   DRIZZLE   55  55 100 CALM      30.08R
OSHKOSH        LGT RAIN  59  57  93 SE9       30.06S FOG
$$

WIZ032>034-041-042-053>061-291100-
SOUTHWEST WISCONSIN

CITY           SKY/WX    TMP DP  RH WIND       PRES   REMARKS
LA CROSSE      CLOUDY    61  57  87 NE3       30.00S
SPARTA         CLOUDY    58  56  94 E8        30.02S
VIROQUA        CLOUDY    58  58 100 E5        30.00S
BOSCOBEL       CLOUDY    63  62  97 VRB3      29.97F FOG
PRAIRIE DU CHI CLOUDY    63  62  96 CALM      29.96S
PLATTEVILLE    CLOUDY    64  64  98 S6        29.97S
$$

WIZ056-057-062-063-064-067-068-291100-
SOUTH CENTRAL WISCONSIN

CITY           SKY/WX    TMP DP  RH WIND       PRES   REMARKS
REEDSBURG      DRIZZLE   58  57  99 E5        30.00F
BARABOO/DELLS  DRIZZLE   58  56  94 E9        30.02S
LONE ROCK      NOT AVBL
MINERAL POINT  LGT RAIN  64  63  94 SE3       29.98S
MADISON        LGT RAIN  63  61  93 SE10      30.00S FOG
MIDDLETON      CLOUDY    64  64  99 SE6       30.00F
WATERTOWN      RAIN      60  60 100 E9        30.04R
MONROE         RAIN      63  61  94 S10       29.98F
JANESVILLE     RAIN      63  61  94 E3        30.01S
$$

WIZ051-052-058>065-066-070>072-291100-
SOUTHEAST WISCONSIN

CITY           SKY/WX    TMP DP  RH WIND       PRES   REMARKS
MILWAUKEE      RAIN      64  62  93 E6        30.04S FOG
WAUKESHA       RAIN      59  59 100 E5        30.06R
MILWAUKEE/TIMM HVY RAIN  57  54  88 NE12      30.06S
RACINE         LGT RAIN  64  61  90 S3        30.06R FOG
BURLINGTON     RAIN      62  62  97 CALM      30.03R
KENOSHA        RAIN      66  63  90 S5        30.04S FOG
FOND DU LAC    RAIN      59  58  96 E5        30.07S FOG
SHEBOYGAN      LGT RAIN  57  56  96 NE9       30.08S FOG
WEST BEND      RAIN      55  55 100 CALM      30.07F
JUNEAU         RAIN      58  58  98 E5        30.06F
$$

LSZ147-162-291100-
LAKE SUPERIOR

STATION/POSITION TIME  TEMP    WIND        PRES    WAVE
                       AIR SEA DIR/SP/G            HT/PER
                 (UTC) (F)     (DEG/KT/KT) (MB)    (FT/S)
W MID LAKE BUOY  0850   58 56  220/ 19/ 21 1014.4F   2/ 4
DEVILS ISLAND    0900   59     230/ 16/ 20 1017.3F
PORT WING        0903   59      30/ 19/ 28 1020.0R
SAXON HARBOR     0900   60     200/  4/  5 1017.9F
$$

LMZ867-665-643>646-291100-
LAKE MICHIGAN

STATION/POSITION TIME  TEMP    WIND        PRES    WAVE
                       AIR SEA DIR/SP/G            HT/PER
                 (UTC) (F)     (DEG/KT/KT) (MB)    (FT/S)
CHAMBERS ISLAND  0900   59     200/  4/ 13 1019.0R
S GREEN BAY BUOY 0900   60 62  180/ 10/ 12 1020.0F
N MID LAKE BUOY  0850   63 64  240/ 16/ 19 1018.8R   3/ 4
NORTHPORT PIER   0900   61      CALM  /  3 1019.0R
SISTER BAY       0904   61     250/  5/  6   N/A
ALGOMA LAKESHORE 0914             CALM       N/A
SHEBOYGAN LAKESH 0900   53      20/ 11/ 11 1019.1F
PORT WASHINGTON  0900   56      40/  8/ 10 1019.0
ATWATER BUOY     0900   52 47  360/ 12/ 16 1018.8F
MILWAUKEE LAKESH 0900   58     340/  6/  7   N/A
S MID LAKE BUOY  0850   68 68  100/ 12/ 14 1017.4F   1/ 3
KENOSHA   LAKESH 0900   64     180/  9/ 11 1016.9S
$$

TC  - TEMPERATURE IN CELSIUS
VSB - VISIBILITY IN STATUTE MILES
WCI - WIND CHILL INDEX
HX  - HEAT INDEX




USA.gov is the U.S. government's official web portal to all federal, state and local government web resources and services.